Theta_e
322 321 320 320 321 319 315 312 309 303 305 307 309 313 312 312 317 320 327 327 328 324 322 322 322 322 324 324 325 326 328 329 331 333 335 336 339 342
318 317 318 320 321 320 320 318 316 313 310 309 309 309 310 313 316 320 325 327 325 323 323 322 321 321 320 321 321 323 324 325 326 327 329 331 334 336
309 312 313 315 315 316 317 315 313 311 310 314 311 312 309 310 314 318 322 320 318 320 321 322 320 318 317 317 318 319 320 322 323 324 326 325 328 332
306 307 308 312 307 309 311 311 312 312 310 312 312 308 309 311 311 311 314 316 315 320 320 320 318 316 316 316 315 315 315 315 316 320 321 322 326 330
304 304 304 304 302 303 304 304 305 309 309 312 313 312 310 310 310 310 312 314 318 323 318 317 316 316 317 315 315 314 312 311 310 311 316 319 322 326
301 302 303 303 302 302 304 303 303 302 303 304 306 309 310 312 309 311 310 308 310 315 318 317 318 318 317 316 316 316 313 311 309 308 308 311 314 318
299 300 300 302 306 306 305 301 299 299 300 301 301 301 305 306 305 308 307 310 309 310 312 312 315 314 314 314 316 316 313 311 310 309 306 307 308 310
294 295 296 299 299 302 304 305 304 299 299 298 299 299 301 304 307 306 305 304 306 310 310 310 313 310 312 312 313 311 309 309 309 308 306 306 306 306
293 294 294 297 299 299 300 302 303 304 304 301 297 298 299 302 306 307 304 304 307 308 310 306 308 308 310 314 309 307 308 306 305 306 305 305 305 303
294 294 294 296 297 297 298 300 300 300 300 302 301 302 302 303 302 306 306 306 305 306 309 307 306 307 309 311 307 307 305 306 304 303 304 304 303 302
294 295 295 295 296 295 297 297 297 298 301 300 299 298 296 296 297 298 297 300 302 304 310 310 307 307 307 308 310 308 305 302 301 302 303 303 301 300
293 294 296 295 295 294 295 295 295 295 297 297 297 298 297 298 298 298 298 298 300 301 308 309 305 305 305 313 314 313 311 304 301 302 302 301 300 310
292 293 294 295 294 293 293 295 295 296 296 296 296 297 297 298 299 299 301 301 299 300 308 311 308 306 308 308 315 313 312 310 310 307 302 303 303 309
291 293 294 294 293 293 293 293 293 294 295 295 294 294 295 296 296 298 300 300 301 302 306 311 309 307 307 306 311 312 311 311 312 308 307 303 301 302
294 294 294 293 293 293 293 293 293 294 294 293 293 294 296 298 298 299 301 303 302 303 307 310 311 308 310 307 312 312 308 309 309 307 308 307 307 307
294 294 294 293 293 293 293 294 294 295 294 294 294 296 298 297 297 298 299 302 303 303 309 312 313 312 309 314 315 312 310 307 307 306 303 301 301 304
292 291 291 290 290 291 291 292 293 294 293 296 296 296 296 297 298 300 301 302 302 304 307 311 312 309 304 307 313 311 308 305 304 303 301 298 297 297
290 289 288 289 289 290 290 290 292 294 295 298 298 297 298 299 301 303 303 303 305 306 308 307 306 307 307 305 304 308 305 303 303 302 301 298 296 295
289 289 288 289 289 290 290 291 292 295 298 301 301 302 303 304 302 305 305 306 305 306 308 309 309 309 307 302 303 297 303 301 298 294 295 295 293 292
291 290 290 291 291 291 292 293 294 296 298 299 301 303 303 303 303 304 305 305 306 308 309 309 310 311 310 303 297 295 293 301 297 292 290 292 292 294
293 293 294 294 294 294 294 295 295 296 297 300 302 305 305 305 304 305 305 296 301 309 308 309 309 296 301 303 296 292 293 295 297 294 292 292 291 292
296 296 296 297 297 298 298 299 299 299 301 302 304 306 306 307 306 306 307 306 307 309 303 302 305 306 302 301 293 290 291 294 296 296 296 296 294 291
294 297 300 301 302 302 302 302 303 304 305 307 305 305 308 309 310 309 308 309 307 304 301 299 298 297 296 294 292 291 291 292 292 290 291 295 295 295
Wind_Speed
6 5 4 4 3 4 3 3 4 3 6 4 5 5 4 3 7 5 6 9 11 11 9 10 10 7 7 9 8 10 10 10 11 11 12 12 10 14
4 5 3 3 4 4 4 5 5 9 7 5 6 6 4 4 6 6 7 9 9 12 11 11 11 10 5 9 9 9 11 11 12 12 13 12 9 11
5 4 5 4 3 4 3 4 6 5 7 4 5 5 4 6 6 4 5 5 5 13 15 12 12 7 6 6 8 9 10 10 12 12 13 13 12 12
6 5 5 3 5 4 3 4 3 3 4 12 3 4 7 6 6 5 6 4 5 10 13 12 9 9 6 4 7 9 9 9 10 14 15 14 12 11
5 6 6 6 6 4 4 4 3 2 3 4 6 3 5 3 5 4 5 5 5 10 12 10 10 8 7 6 7 9 12 10 10 10 14 15 13 11
6 6 7 7 6 7 6 5 4 3 3 4 4 4 4 5 3 5 5 4 6 5 8 8 8 9 6 8 8 10 11 10 12 12 12 14 13 12
8 9 9 11 18 14 7 7 5 5 6 7 7 4 4 3 4 3 5 6 5 5 4 3 4 4 4 6 8 10 9 9 12 13 12 14 13 13
9 10 10 17 17 21 22 22 17 10 10 8 9 10 12 6 6 4 5 4 7 4 4 5 5 4 5 4 9 9 8 9 12 13 13 13 13 13
10 10 10 10 14 11 15 18 19 20 17 10 10 11 12 10 8 9 6 6 7 5 4 4 4 5 4 4 10 11 9 11 14 13 14 13 12 12
10 10 11 12 10 11 11 9 7 9 10 9 10 8 7 6 6 6 7 7 4 4 4 7 3 4 3 5 11 12 10 12 14 12 13 13 12 12
10 10 10 11 14 14 10 9 9 10 8 11 11 12 14 16 14 6 8 6 5 4 5 5 3 3 3 4 4 5 6 9 8 9 10 11 11 12
9 10 14 12 15 14 10 10 9 10 7 7 7 9 12 13 18 12 8 9 6 6 5 5 3 4 3 2 1 1 1 4 3 6 10 13 14 6
8 8 8 12 12 13 12 9 11 9 10 8 8 8 9 9 9 8 8 8 9 10 4 3 3 3 4 2 1 2 1 1 2 3 7 12 11 7
9 8 10 14 13 14 12 14 13 12 8 7 8 9 9 9 9 9 11 11 12 15 10 9 4 5 3 2 3 2 1 1 2 2 4 7 11 10
9 12 19 19 16 11 14 16 13 6 7 8 9 9 9 9 10 9 10 13 13 15 14 14 8 4 4 4 3 3 4 1 3 4 4 4 3 2
14 10 12 15 15 13 12 10 8 8 9 9 9 9 8 7 8 8 9 8 8 9 14 14 11 6 5 6 3 3 4 5 4 3 5 4 5 4
14 8 7 6 7 7 7 8 8 8 8 9 8 8 8 8 9 8 9 8 10 9 8 5 4 6 4 3 5 6 5 5 4 4 3 5 4 4
4 6 7 7 7 7 7 8 8 10 8 9 7 8 8 8 8 7 7 8 4 7 6 5 6 4 3 5 18 7 4 5 4 6 4 3 2 4
4 6 7 7 7 7 7 8 9 7 8 8 7 7 6 5 4 3 3 2 4 4 5 6 7 6 6 2 1 22 6 4 5 4 4 3 3 3
5 7 7 7 7 7 7 8 8 8 8 7 8 8 8 7 4 3 2 2 3 3 5 6 6 7 5 5 4 3 15 7 4 4 3 5 5 9
8 8 8 8 8 8 8 8 9 9 8 8 7 7 5 5 5 4 3 4 4 4 5 5 1 10 9 8 5 3 7 14 7 4 5 3 2 2
9 10 10 9 9 9 8 8 8 8 8 6 5 4 4 5 6 6 7 7 4 3 4 5 5 7 4 5 7 6 5 7 14 18 12 5 3 4
11 12 12 10 9 8 8 8 7 6 6 5 3 3 3 3 2 5 8 6 7 8 8 7 4 6 6 8 9 6 11 7 4 7 9 14 12 17
Wind_Direction
308 299 279 274 242 228 187 163 165 237 248 254 246 271 256 234 245 240 233 250 250 259 266 270 274 259 278 302 288 287 276 266 264 263 259 258 257 270
298 321 314 282 272 250 255 258 219 237 262 190 229 239 262 258 254 251 235 232 261 262 259 264 269 278 279 294 294 274 266 255 249 249 253 255 246 250
319 328 318 317 308 293 258 219 234 222 240 263 218 238 242 249 259 233 246 252 257 267 269 257 257 271 284 295 298 295 281 263 247 240 247 247 253 249
316 321 302 324 320 329 317 301 277 250 227 270 249 246 225 237 240 247 253 243 238 259 252 247 249 257 257 272 286 293 293 282 260 233 234 239 231 224
335 323 306 314 301 290 269 280 277 287 260 264 288 233 250 252 267 254 249 261 250 245 262 257 249 230 223 267 276 279 291 296 281 241 232 230 222 214
273 269 274 274 268 270 254 247 242 251 256 263 263 251 234 248 219 239 265 237 259 250 254 241 208 214 240 258 265 274 273 282 288 270 239 224 218 206
254 263 269 264 271 266 263 257 242 245 250 256 265 264 252 234 218 233 232 252 250 225 255 237 217 223 254 267 259 258 262 273 279 271 248 226 214 213
275 274 270 276 273 271 265 261 252 236 242 246 252 250 256 251 248 224 228 237 265 208 210 248 184 230 231 237 249 262 282 294 280 256 240 227 208 209
273 274 278 278 280 276 275 269 260 252 244 243 244 247 256 252 255 254 237 226 237 250 182 247 184 237 240 247 254 263 268 277 273 248 232 223 210 200
276 271 270 277 278 281 280 265 259 257 247 243 246 255 259 284 297 302 302 272 272 250 194 239 184 242 272 259 253 251 260 271 267 234 218 210 198 187
280 278 277 279 279 273 270 260 259 255 240 232 236 245 260 270 263 273 271 273 269 243 198 228 211 227 235 259 264 251 279 278 253 210 193 186 175 154
279 273 271 264 269 271 273 267 262 263 258 254 247 246 249 252 253 249 240 244 242 294 210 183 196 155 284 212 161 230 312 351 190 168 158 154 149 141
290 288 280 269 268 266 258 262 258 267 267 260 257 249 245 248 245 233 233 235 236 236 266 178 195 179 202 235 179 189 230 216 72 126 148 158 149 143
282 278 275 274 264 263 267 262 251 258 259 252 250 249 243 242 237 238 234 229 236 246 248 225 255 181 174 258 224 134 179 106 125 129 123 108 86 84
283 281 282 278 277 276 266 263 261 253 251 250 251 249 241 241 242 241 240 240 233 239 236 239 225 184 198 200 214 170 146 159 116 140 97 88 87 103
290 284 280 278 274 268 273 266 251 244 246 251 251 250 246 238 238 234 239 232 234 224 229 221 214 195 240 228 220 194 156 164 119 85 108 73 50 31
300 292 285 277 271 265 264 265 261 255 249 252 243 245 240 236 235 230 231 236 242 198 195 163 136 109 71 353 236 153 148 113 116 146 82 75 43 27
285 296 295 286 279 277 277 276 266 260 252 257 236 237 238 235 237 222 219 229 205 172 161 135 139 130 163 96 25 125 85 108 96 80 81 99 92 17
280 288 285 282 277 273 270 267 271 263 268 275 238 241 235 243 220 229 201 171 161 157 135 143 165 177 187 105 42 26 101 115 102 71 39 62 101 25
269 282 278 271 266 260 255 261 268 269 263 262 258 246 231 234 233 217 167 160 190 148 144 160 176 198 187 148 115 23 19 113 105 99 108 80 94 104
304 295 285 281 274 267 260 261 254 261 261 258 259 257 210 191 201 190 174 208 212 143 157 168 144 105 110 113 87 57 35 48 69 119 135 110 100 76
312 304 299 292 282 278 270 260 259 258 261 261 247 220 201 188 207 201 194 187 174 124 93 106 129 115 76 94 110 109 102 72 63 63 52 59 154 154
323 325 318 314 312 304 287 276 270 258 252 258 241 194 199 192 163 101 126 133 126 121 121 102 82 62 70 108 112 101 112 91 68 62 45 42 74 92